Location: Hawks Ness
(60.2333°N, 1.1667°W)
Time: 20:37:51
(UTC+00:00)

SL-16 R/B - Pass Details

Date: 22 October 2019
Orbit: 842 x 846 km, 71.0° (Epoch: 20 November)

Event Time Altitude Azimuth Distance (km) Brightness Sun altitude
Exits shadow 02:21:48 50° 45° (NE) 1,069 2.9 -33.2°
Drops below altitude 10° 02:25:58 10° 41° (NE) 2,482 5.5 -32.8°
Sets 02:28:25 0° 41° (NE) 3,421 6.4 -32.6°
